This is the latest recevied weather packets stored in our database for station/object K6TTR. If no packets are shown the sender has not sent any weather packets the latest 10 day(s).
| Time | Temp. | Humidity | Pressure | Rain* | Wind** | Luminosity | Snow |
|---|---|---|---|---|---|---|---|
| 1777650222 | 10° C | 79% | 1020.1 hPa | 0 mm | - | 158 W/m² | - |
| 1777649925 | 9.44° C | 81% | 1020.1 hPa | 0 mm | - | 176 W/m² | - |
| 1777649628 | 8.89° C | 84% | 1020.1 hPa | 0 mm | - | 74 W/m² | - |
| 1777649329 | 8.33° C | 86% | 1020.1 hPa | 0 mm | - | 243 W/m² | - |
| 1777649030 | 7.78° C | 88% | 1020.2 hPa | 0 mm | - | 320 W/m² | - |
| 1777648714 | 7.22° C | 90% | 1020.1 hPa | 0 mm | - | 179 W/m² | - |
| 1777648417 | 6.67° C | 90% | 1020.1 hPa | 0 mm | - | 67 W/m² | - |
| 1777648117 | 6.11° C | 91% | 1020.1 hPa | 0 mm | - | 60 W/m² | - |
| 1777647820 | 6.11° C | 91% | 1020.2 hPa | 0 mm | - | 62 W/m² | - |
| 1777647523 | 5.56° C | 91% | 1020.1 hPa | 0 mm | - | 54 W/m² | - |
| 1777647227 | 5° C | 91% | 1020.2 hPa | 0 mm | - | 60 W/m² | - |
| 1777646931 | 4.44° C | 91% | 1020.2 hPa | 0 mm | - | 49 W/m² | - |
| 1777646612 | 3.89° C | 91% | 1020.2 hPa | 0 mm | - | 65 W/m² | - |
| 1777646316 | 3.89° C | 91% | 1020.2 hPa | 0 mm | - | 67 W/m² | - |
| 1777646020 | 3.33° C | 91% | 1020.1 hPa | 0 mm | - | 40 W/m² | - |
| 1777645725 | 3.33° C | 91% | 1020.2 hPa | 0 mm | - | 37 W/m² | - |
| 1777645414 | 3.33° C | 91% | 1020.1 hPa | 0 mm | - | 35 W/m² | - |
| 1777645120 | 3.33° C | 91% | 1020.1 hPa | 0 mm | - | 35 W/m² | - |
| 1777644824 | 2.78° C | 91% | 1020 hPa | 0 mm | - | 37 W/m² | - |
| 1777644529 | 2.78° C | 91% | 1020.1 hPa | 0 mm | - | 49 W/m² | - |
| 1777644213 | 2.22° C | 91% | 1020 hPa | 0 mm | - | 47 W/m² | - |
| 1777643917 | 2.22° C | 91% | 1019.9 hPa | 0 mm | - | 35 W/m² | - |
| 1777643621 | 2.22° C | 91% | 1019.8 hPa | 0 mm | - | 28 W/m² | - |
| 1777643326 | 2.22° C | 91% | 1019.7 hPa | 0 mm | - | 26 W/m² | - |
| 1777643031 | 2.22° C | 91% | 1019.7 hPa | 0 mm | - | 23 W/m² | - |
* Rain latest hour (hover to see other rain measurements)
** Current wind speed in m/s (hover to see current wind gust speed)